Weather History for Hollywood, FL

Change the Weather History Date:

Saturday, March 9, 2013

  Actual Average (KFLL) Record (KFLL)
Temperature  
Mean Temperature 64 °F 72 °F  
Max Temperature 75 °F 79 °F 88 °F (1991)
Min Temperature 54 °F 65 °F 35 °F (1914)
Degree Days  
Heating Degree Days 0 0  
Month to date heating degree days 7  
Since 1 July heating degree days 109  
Cooling Degree Days 0 8  
Month to date cooling degree days 68  
Year to date cooling degree days 424  
Growing Degree Days 14 (Base 50)    
Moisture  
Dew Point 51 °F    
Average Humidity 61    
Maximum Humidity 86    
Minimum Humidity 48    
Precipitation  
Precipitation 0.00 in 0.12 in 4.10 in (1970)
Month to date precipitation 0.87  
Year to date precipitation 7.46  
Snow  
Snow 0.00 in - - ()
Month to date snowfall  
Since 1 July snowfall  
Snow Depth -    
Sea Level Pressure  
Sea Level Pressure 30.18 in    
Wind  
Wind Speed 7 mph (NNE)    
Max Wind Speed 15 mph    
Max Gust Speed 21 mph    
Visibility 10 miles    
Events      
T = Trace of Precipitation, MM = Missing Value Source: NWS Daily Summary

Daily Weather History Graph

Daily Weather History Graph

Search for Another Location

Airport:

Trip Planner

Search our weather history database for the weather conditions in past years. The results will help you decide how hot, cold, wet, or windy it might be!

Date:

Astronomy

Mar. 09, 2013 Rise Set
Actual Time 6:36 AM EST 6:26 PM EST
Civil Twilight 6:13 AM EST 6:49 PM EST
Nautical Twilight 5:46 AM EST 7:16 PM EST
Astronomical Twilight 5:19 AM EST 7:43 PM EST
Moon 4:49 AM EST (3/9) 4:34 PM EST (3/9)
Length of Visible Light 12h 36m
Length of Day
11h 50m
Waning Crescent, 5% of the Moon is Illuminated
Mar 9
Waning Crescent
Mar 11
New
Mar 19
First Quarter
Mar 27
Full
Apr 3
Last Quarter

Hourly Weather History & Observations

Time (EST) Temp. Dew Point Humidity Pressure Visibility Wind Dir Wind Speed Gust Speed Precip Events Conditions
12:53 AM 59.0 °F 48.9 °F 69% 30.17 in 10.0 mi North 3.5 mph - N/A   Clear
1:53 AM 57.9 °F 48.0 °F 70% 30.17 in 10.0 mi North 5.8 mph - N/A   Clear
2:53 AM 57.0 °F 48.0 °F 72% 30.14 in 10.0 mi WNW 3.5 mph - N/A   Clear
3:53 AM 57.0 °F 48.9 °F 74% 30.13 in 10.0 mi Calm Calm - N/A   Clear
4:53 AM 55.0 °F 48.9 °F 80% 30.14 in 10.0 mi Calm Calm - N/A   Clear
5:53 AM 54.0 °F 50.0 °F 86% 30.16 in 10.0 mi WNW 5.8 mph - N/A   Clear
6:53 AM 54.0 °F 50.0 °F 86% 30.18 in 10.0 mi NW 8.1 mph - N/A   Clear
7:53 AM 60.1 °F 53.1 °F 78% 30.19 in 10.0 mi NNW 6.9 mph - N/A   Partly Cloudy
8:53 AM 66.9 °F 53.1 °F 61% 30.21 in 10.0 mi North 8.1 mph - N/A   Clear
9:53 AM 71.1 °F 51.1 °F 49% 30.21 in 10.0 mi North 9.2 mph - N/A   Partly Cloudy
10:53 AM 75.0 °F 55.9 °F 51% 30.21 in 10.0 mi ENE 9.2 mph - N/A   Mostly Cloudy
11:53 AM 73.9 °F 53.1 °F 48% 30.20 in 10.0 mi ENE 12.7 mph 18.4 mph N/A   Scattered Clouds
12:53 PM 73.9 °F 53.1 °F 48% 30.19 in 10.0 mi ENE 8.1 mph 18.4 mph N/A   Mostly Cloudy
1:53 PM 73.9 °F 53.1 °F 48% 30.16 in 10.0 mi NE 13.8 mph - N/A   Partly Cloudy
2:53 PM 75.0 °F 55.0 °F 50% 30.15 in 10.0 mi ENE 13.8 mph 20.7 mph N/A   Clear
3:53 PM 73.0 °F 54.0 °F 51% 30.16 in 10.0 mi ENE 15.0 mph - N/A   Clear
4:53 PM 71.1 °F 53.1 °F 53% 30.15 in 10.0 mi NE 15.0 mph - N/A   Clear
5:53 PM 69.1 °F 52.0 °F 54% 30.16 in 10.0 mi NE 13.8 mph - N/A   Clear
6:53 PM 68.0 °F 51.1 °F 55% 30.17 in 10.0 mi NE 13.8 mph - N/A   Clear
7:53 PM 68.0 °F 51.1 °F 55% 30.19 in 10.0 mi ENE 11.5 mph - N/A   Partly Cloudy
8:53 PM 66.9 °F 51.1 °F 57% 30.20 in 10.0 mi ENE 11.5 mph - N/A   Mostly Cloudy
9:53 PM 66.9 °F 50.0 °F 54% 30.21 in 10.0 mi NE 6.9 mph - N/A   Scattered Clouds
10:53 PM 66.9 °F 50.0 °F 54% 30.19 in 10.0 mi ENE 6.9 mph - N/A   Scattered Clouds
11:53 PM 66.9 °F 51.1 °F 57% 30.19 in 10.0 mi ENE 6.9 mph - N/A   Mostly Cloudy